This is the latest recevied weather packets stored in our database for station/object WA0LM. If no packets are shown the sender has not sent any weather packets the latest 10 day(s).
| Time | Temp. | Humidity | Pressure | Rain* | Wind** | Luminosity | Snow |
|---|---|---|---|---|---|---|---|
| 1777813651 | 10.56° C | 66% | 1006.1 hPa | 0 mm | - | 49 W/m² | - |
| 1777813347 | 10.56° C | 70% | 1005.8 hPa | 0 mm | - | 50 W/m² | - |
| 1777813045 | 10.56° C | 67% | 1006 hPa | 0 mm | - | 44 W/m² | - |
| 1777812743 | 10° C | 69% | 1005.8 hPa | 0 mm | - | 44 W/m² | - |
| 1777812438 | 10° C | 69% | 1005.9 hPa | 0 mm | - | 91 W/m² | - |
| 1777812137 | 9.44° C | 71% | 1005.9 hPa | 0 mm | - | 45 W/m² | - |
| 1777811835 | 9.44° C | 72% | 1005.7 hPa | 0 mm | - | 55 W/m² | - |
| 1777811533 | 9.44° C | 70% | 1005.6 hPa | 0 mm | - | 75 W/m² | - |
| 1777811229 | 8.89° C | 72% | 1005.7 hPa | 0 mm | - | 67 W/m² | - |
| 1777810926 | 8.89° C | 74% | 1005.7 hPa | 0 mm | - | 44 W/m² | - |
| 1777810622 | 8.89° C | 74% | 1005.6 hPa | 0 mm | - | 55 W/m² | - |
| 1777810320 | 8.89° C | 76% | 1005.3 hPa | 0 mm | - | 34 W/m² | - |
| 1777810015 | 8.33° C | 74% | 1005.5 hPa | 0 mm | - | 33 W/m² | - |
| 1777809713 | 8.33° C | 74% | 1005.4 hPa | 0 mm | - | 32 W/m² | - |
| 1777809410 | 8.33° C | 75% | 1005.4 hPa | 0 mm | - | 31 W/m² | - |
| 1777809108 | 8.33° C | 75% | 1005.5 hPa | 0 mm | - | 26 W/m² | - |
| 1777808806 | 7.78° C | 74% | 1005.3 hPa | 0 mm | - | 25 W/m² | - |
| 1777808502 | 7.78° C | 73% | 1005.2 hPa | 0 mm | - | 22 W/m² | - |
| 1777808199 | 7.78° C | 76% | 1005.2 hPa | 0 mm | - | 20 W/m² | - |
| 1777807898 | 7.78° C | 78% | 1005.2 hPa | 0 mm | - | 17 W/m² | - |
| 1777807596 | 7.22° C | 76% | 1005.2 hPa | 0 mm | - | 14 W/m² | - |
| 1777807292 | 7.22° C | 77% | 1005.1 hPa | 0 mm | - | 12 W/m² | - |
| 1777806988 | 7.78° C | 78% | 1004.8 hPa | 0 mm | - | 9 W/m² | - |
| 1777806685 | 7.78° C | 76% | 1004.7 hPa | 0 mm | - | 6 W/m² | - |
| 1777806381 | 7.22° C | 77% | 1004.7 hPa | 0 mm | - | 4 W/m² | - |
* Rain latest hour (hover to see other rain measurements)
** Current wind speed in m/s (hover to see current wind gust speed)